[[{"header":{"parameterUnit":"m.s-1","parameterCategory":1,"la1":30.2991,"la2":30.254,"lo1":-89.0895,"lo2":-89.0444,"dy":0.0017,"dx":0.0017,"nx":28,"ny":28,"refTime":"2023-09-09T21:00:00:Z","depth":0,"parameterNumber":2,"parameterNumberName":"U-component_of_WINDS"},"data":[0,0,0,0,0,0,0,0,0,0,0,0,0,0,0,0,0,0,0,0,0,0,0,0,0,0,0,0,0,0,0,0,0,0,0,0,0,0,0,0,0,0,0,0,0,0,0,0,0,0,0,0,0,0,0,0,0,0,-0.3198,-0.3197,0,-0.3135,-0.3135,-0.3134,-0.306,-0.3059,-0.3058,-0.3057,-0.2992,-0.2991,-0.2991,0,0,0,0,0,0,0,0,0,0,0,0,0,-0.3253,-0.3252,-0.3198,-0.3197,-0.3196,-0.3136,-0.3135,-0.3134,-0.306,-0.3059,-0.3057,-0.3056,-0.2992,-0.2991,-0.2991,0,0,0,0,0,0,0,0,0,0,0,0,0,-0.3214,-0.3252,-0.3198,-0.3152,-0.3148,-0.3136,-0.3135,-0.3134,-0.306,-0.3059,-0.3057,-0.3055,-0.2992,-0.2991,-0.299,-0.3019,0,0,-0.2987,-0.2987,0,0,0,0,0,0,0,0,-0.3216,-0.3212,-0.316,-0.3155,-0.315,-0.3104,-0.313,-0.3095,-0.3061,-0.3093,-0.3057,-0.3055,-0.303,-0.3026,-0.3018,-0.3015,-0.3013,-0.2987,-0.2987,-0.2986,-0.2986,0,0,0,0,0,0,0,-0.3219,-0.3214,-0.3173,-0.3159,-0.3153,-0.3135,-0.3127,-0.3123,-0.3072,-0.309,-0.3085,-0.3079,-0.3027,-0.3019,-0.3016,-0.3012,-0.2987,-0.2987,-0.2986,-0.2986,-0.3029,-0.303,0,0,0,0,0,0,-0.3228,-0.3217,-0.3175,-0.3171,-0.3179,-0.3135,-0.3127,-0.312,-0.3072,-0.3063,-0.308,-0.3075,-0.3022,-0.3017,-0.3014,-0.3043,-0.2986,-0.2985,-0.2985,-0.3027,-0.3029,-0.3031,0,0,0,0,0,0,-0.323,-0.3225,-0.3178,-0.3192,-0.3185,-0.3136,-0.3129,-0.312,-0.3112,-0.3064,-0.3055,-0.3081,-0.302,-0.3015,-0.3018,-0.304,-0.2985,-0.2984,-0.3025,-0.3028,-0.303,-0.3103,0,0,0,0,0,0,-0.3232,-0.3226,-0.3237,-0.3193,-0.3184,-0.3184,-0.3131,-0.312,-0.311,-0.3104,-0.3063,-0.3054,-0.3019,-0.302,-0.3017,-0.3038,-0.2983,-0.3023,-0.3026,-0.3029,-0.3099,-0.3108,-0.3116,0,0,0,0,0,-0.3234,-0.326,-0.3238,-0.3233,-0.3196,-0.3185,-0.318,-0.3138,-0.3113,-0.3122,-0.3092,-0.3056,-0.3038,-0.3021,-0.3017,-0.3038,-0.3021,-0.3025,-0.3029,-0.3095,-0.3106,-0.3116,0,0,0,0,0,0,-0.3307,-0.3253,-0.3228,-0.324,-0.3218,-0.3172,-0.3184,-0.3152,-0.3136,-0.313,-0.3079,-0.307,-0.308,-0.3059,-0.304,-0.3062,-0.3024,-0.3028,-0.3076,-0.3086,-0.3095,-0.31,-0.2982,0,0,0,0,0,-0.3324,-0.332,-0.3273,-0.3288,-0.3278,-0.3233,-0.3227,-0.3197,-0.3171,-0.3161,-0.313,-0.3107,-0.3096,-0.309,-0.3077,-0.3095,-0.3085,-0.3108,-0.3116,-0.3124,-0.3127,-0.3136,-0.3145,-0.3044,-0.3044,-0.3044,0,0,-0.336,-0.333,-0.3331,-0.3302,-0.3281,-0.3277,-0.3226,-0.3224,-0.322,-0.316,-0.3161,-0.3139,-0.3109,-0.312,-0.3123,-0.3102,-0.3153,-0.3129,-0.3135,-0.3135,-0.3141,-0.315,-0.3159,-0.3047,-0.3046,-0.3046,0,0,-0.3424,-0.3401,-0.3412,-0.3392,-0.336,-0.333,-0.3333,-0.3292,-0.3275,-0.3275,-0.323,-0.3225,-0.3207,-0.3188,-0.3176,-0.3233,-0.3199,-0.323,-0.3276,-0.3285,-0.3293,-0.3299,-0.332,-0.3328,-0.3234,-0.3234,-0.3234,0,-0.3473,-0.3466,-0.3421,-0.3422,-0.3411,-0.3357,-0.3367,-0.335,-0.3316,-0.331,-0.3287,-0.3264,-0.324,-0.3246,-0.326,-0.3252,-0.3253,-0.3235,-0.3295,-0.3302,-0.3307,-0.3326,-0.3334,-0.3238,-0.3238,-0.3237,-0.3237,0,-0.3527,-0.3523,-0.3535,-0.3505,-0.3495,-0.35,-0.3456,-0.3452,-0.3423,-0.3395,-0.3396,-0.3365,-0.3345,-0.3344,-0.3316,-0.3346,-0.3335,-0.3305,-0.3265,-0.3322,-0.3339,-0.3346,-0.3244,-0.3242,-0.3241,-0.324,0,0,-0.3636,-0.358,-0.3585,-0.3571,-0.3533,-0.3528,-0.3531,-0.3512,-0.351,-0.3488,-0.349,-0.3476,-0.3448,-0.3434,-0.3403,-0.3411,-0.3458,-0.3379,-0.3378,-0.3395,-0.349,-0.3513,-0.3522,-0.3435,-0.3436,-0.3437,-0.3492,0,-0.3693,-0.3695,-0.3655,-0.3669,-0.3664,-0.3613,-0.3616,-0.3592,-0.3567,-0.3559,-0.353,-0.3521,-0.3485,-0.3476,-0.3481,-0.3451,-0.3476,-0.3447,-0.3436,-0.3436,-0.3446,-0.3531,-0.3555,-0.3609,-0.3499,-0.35,-0.3501,0,-0.376,-0.3743,-0.3756,-0.3717,-0.3714,-0.3717,-0.3697,-0.369,-0.3663,-0.3643,-0.3628,-0.3593,-0.3593,-0.3556,-0.3555,-0.3536,-0.3529,-0.3514,-0.3515,-0.3513,-0.3472,-0.3532,-0.3625,-0.3633,-0.3511,-0.351,-0.3509,0,-0.3838,-0.3818,-0.3824,-0.3813,-0.3768,-0.3771,-0.3753,-0.3723,-0.3715,-0.3696,-0.369,-0.3672,-0.3663,-0.365,-0.361,-0.3587,-0.3615,-0.3574,-0.3599,-0.36,-0.3607,-0.3607,-0.3701,-0.3603,-0.3602,-0.3602,-0.3602,0,-0.3906,-0.3917,-0.3858,-0.3862,-0.3872,-0.3825,-0.3836,-0.3812,-0.3787,-0.3785,-0.3739,-0.3738,-0.3686,-0.3679,-0.3648,-0.3652,-0.3648,-0.3632,-0.3624,-0.3637,-0.3639,-0.3632,-0.3627,-0.3604,-0.3604,-0.3603,-0.3603,0,-0.3996,-0.3957,-0.3959,-0.3916,-0.3906,-0.3915,-0.3878,-0.388,-0.3851,-0.3849,-0.3846,-0.3801,-0.379,-0.3749,-0.3729,-0.3708,-0.3723,-0.3706,-0.3732,-0.3727,-0.3754,-0.3752,-0.3847,-0.3857,-0.3752,-0.3753,-0.3754,0,-0.4042,-0.4049,-0.4007,-0.4002,-0.3986,-0.3979,-0.397,-0.3924,-0.3916,-0.3886,-0.3891,-0.3877,-0.3863,-0.3849,-0.3814,-0.3798,-0.3781,-0.3815,-0.3778,-0.3791,-0.3782,-0.3782,-0.3783,-0.3824,-0.3825,-0.3826,-0.3827,0,-0.4129,-0.4109,-0.4098,-0.408,-0.4071,-0.4054,-0.4035,-0.4034,-0.3983,-0.3977,-0.3966,-0.3955,-0.3935,-0.3921,-0.3899,-0.388,-0.3845,-0.3839,-0.3844,-0.3857,-0.3872,-0.3865,-0.3754,-0.3837,-0.3836,-0.3835,-0.3835,-0.3834,-0.4198,-0.4201,-0.4173,-0.4162,-0.4143,-0.4126,-0.4125,-0.4097,-0.4087,-0.4066,-0.404,-0.4032,-0.4005,-0.3972,-0.3955,-0.3948,-0.3929,-0.3936,-0.3938,-0.394,-0.3947,-0.3873,-0.3944,-0.3944,-0.3943,-0.3943,-0.3943,0,-0.4282,-0.4261,-0.4252,-0.4227,-0.4218,-0.4186,-0.4164,-0.4159,-0.4153,-0.413,-0.4117,-0.4105,-0.4091,-0.4056,-0.4039,-0.4041,-0.4024,-0.4038,-0.4037,-0.4033,-0.3965,-0.3962,-0.4051,-0.4051,-0.4051,-0.4051,-0.4051,-0.4051,-0.4325,-0.433,-0.4307,-0.4302,-0.4281,-0.4273,-0.4263,-0.4247,-0.4229,-0.4217,-0.4206,-0.4183,-0.4155,-0.4136,-0.4122,-0.4112,-0.4108,-0.4127,-0.4112,-0.4049,-0.4038,-0.4028,-0.4026,-0.4126,-0.4127,-0.4181,-0.4181,-0.4182]},{"header":{"parameterUnit":"m.s-1","parameterCategory":1,"la1":30.2991,"la2":30.254,"lo1":-89.0895,"lo2":-89.0444,"dy":0.0017,"dx":0.0017,"nx":28,"ny":28,"refTime":"2023-09-09T21:00:00:Z","depth":0,"parameterNumber":3,"parameterNumberName":"V-component_of_WINDS"},"data":[0,0,0,0,0,0,0,0,0,0,0,0,0,0,0,0,0,0,0,0,0,0,0,0,0,0,0,0,0,0,0,0,0,0,0,0,0,0,0,0,0,0,0,0,0,0,0,0,0,0,0,0,0,0,0,0,0,0,0.2299,0.2299,0,0.2331,0.2331,0.2332,0.2331,0.2331,0.2331,0.233,0.2364,0.2366,0.2367,0,0,0,0,0,0,0,0,0,0,0,0,0,0.2236,0.2237,0.2299,0.2299,0.2299,0.2331,0.2331,0.2332,0.2331,0.2331,0.233,0.233,0.2364,0.2365,0.2367,0,0,0,0,0,0,0,0,0,0,0,0,0,0.2265,0.2238,0.2298,0.2303,0.2304,0.2331,0.2331,0.2332,0.2332,0.2331,0.233,0.233,0.2363,0.2365,0.2367,0.2392,0,0,0.2373,0.2374,0,0,0,0,0,0,0,0,0.2264,0.2268,0.2302,0.2303,0.2304,0.2326,0.2322,0.2352,0.2332,0.2321,0.233,0.2329,0.2352,0.2355,0.2363,0.2394,0.2395,0.2373,0.2375,0.2375,0.2376,0,0,0,0,0,0,0,0.2262,0.2266,0.2311,0.2302,0.2303,0.2303,0.2307,0.2327,0.234,0.2322,0.2322,0.2326,0.2353,0.2361,0.2363,0.2396,0.2373,0.2375,0.2376,0.2377,0.2446,0.2446,0,0,0,0,0,0,0.2259,0.2265,0.231,0.2312,0.2282,0.2305,0.2309,0.232,0.234,0.2342,0.2326,0.2326,0.2358,0.2361,0.2365,0.2393,0.2375,0.2377,0.2378,0.2445,0.2446,0.2447,0,0,0,0,0,0,0.2257,0.2263,0.2309,0.2288,0.2294,0.2307,0.2319,0.2321,0.2329,0.2343,0.2345,0.2332,0.2357,0.2362,0.2384,0.2394,0.2378,0.238,0.2444,0.2445,0.2446,0.2451,0,0,0,0,0,0,0.2255,0.2262,0.2272,0.2289,0.2295,0.2329,0.232,0.2322,0.2332,0.2331,0.2349,0.2351,0.2357,0.2382,0.2386,0.2397,0.2382,0.2443,0.2445,0.2446,0.245,0.2452,0.2454,0,0,0,0,0,0.2253,0.2273,0.2273,0.2278,0.2308,0.2329,0.2333,0.2339,0.2333,0.2342,0.2351,0.2351,0.2392,0.2384,0.2389,0.24,0.2443,0.2444,0.2446,0.2449,0.2451,0.2454,0,0,0,0,0,0,0.2259,0.2276,0.2275,0.2301,0.2313,0.2329,0.2342,0.2342,0.2357,0.2356,0.2363,0.2366,0.2388,0.2397,0.2387,0.2424,0.2417,0.2419,0.2417,0.242,0.2422,0.2419,0.2383,0,0,0,0,0,0.2263,0.2279,0.2293,0.2314,0.232,0.233,0.2339,0.2342,0.2356,0.2361,0.2372,0.2385,0.24,0.2411,0.2426,0.2451,0.2454,0.2461,0.2463,0.2464,0.2466,0.2478,0.248,0.2451,0.2451,0.2451,0,0,0.2272,0.2283,0.2293,0.2315,0.2325,0.234,0.2334,0.2352,0.2363,0.2364,0.2385,0.2393,0.2408,0.2431,0.2442,0.2439,0.2475,0.2466,0.2467,0.2468,0.2479,0.2482,0.2484,0.2452,0.2452,0.2452,0,0,0.2295,0.2306,0.2324,0.2333,0.2348,0.2354,0.2358,0.2373,0.2378,0.2399,0.2399,0.2413,0.2441,0.245,0.2459,0.2483,0.2483,0.2488,0.2498,0.2508,0.2511,0.2513,0.252,0.2522,0.249,0.249,0.249,0,0.2305,0.2328,0.2333,0.2349,0.2358,0.2359,0.2376,0.2385,0.2405,0.2411,0.2407,0.2439,0.245,0.2474,0.2479,0.2487,0.2491,0.2486,0.251,0.2512,0.2514,0.2521,0.2523,0.2491,0.2491,0.2491,0.2491,0,0.2337,0.2353,0.2365,0.2382,0.2393,0.241,0.2417,0.2427,0.2428,0.2434,0.2455,0.2467,0.2484,0.249,0.2493,0.2514,0.2511,0.2509,0.2501,0.2517,0.2523,0.2526,0.2491,0.2491,0.2491,0.2491,0,0,0.2366,0.2383,0.2388,0.2394,0.2409,0.2422,0.2438,0.2453,0.2461,0.2474,0.2486,0.2508,0.2505,0.2515,0.2519,0.2528,0.2544,0.2524,0.2525,0.2526,0.2566,0.2566,0.2569,0.2544,0.2544,0.2545,0.2564,0,0.2389,0.2417,0.2421,0.2446,0.2459,0.2459,0.2472,0.2483,0.2488,0.2501,0.2507,0.2522,0.2518,0.2523,0.2533,0.254,0.2552,0.2539,0.2555,0.2555,0.255,0.2573,0.2574,0.2591,0.2566,0.2567,0.2567,0,0.2421,0.2432,0.2458,0.2468,0.2474,0.2487,0.25,0.2512,0.2523,0.2526,0.2536,0.2537,0.2553,0.2545,0.2566,0.2557,0.2564,0.2568,0.2569,0.257,0.2562,0.2573,0.2597,0.2599,0.2571,0.2571,0.2571,0,0.2436,0.2459,0.2476,0.2482,0.2496,0.2504,0.251,0.252,0.2529,0.254,0.2545,0.2559,0.2566,0.2576,0.2581,0.2576,0.2601,0.2594,0.2603,0.2603,0.2608,0.2608,0.2632,0.2615,0.2615,0.2614,0.2614,0,0.2461,0.2476,0.2483,0.2493,0.2509,0.2514,0.253,0.2536,0.2544,0.2556,0.2557,0.2567,0.2574,0.2585,0.2589,0.2605,0.2609,0.2611,0.2612,0.261,0.261,0.2614,0.2613,0.2615,0.2615,0.2615,0.2615,0,0.2481,0.2486,0.2504,0.2515,0.2518,0.253,0.2539,0.2548,0.2553,0.2567,0.2571,0.2579,0.2592,0.2598,0.2615,0.2617,0.2634,0.2635,0.263,0.263,0.2638,0.2636,0.2666,0.2669,0.265,0.265,0.265,0,0.2496,0.2507,0.2518,0.2525,0.2531,0.2543,0.255,0.2555,0.2563,0.2575,0.2583,0.2596,0.2606,0.2627,0.2634,0.2646,0.2646,0.2656,0.2648,0.2646,0.2645,0.2643,0.2644,0.2657,0.2657,0.2657,0.2657,0,0.252,0.2522,0.2533,0.2544,0.2553,0.2562,0.2571,0.2577,0.2582,0.2591,0.2604,0.2612,0.2628,0.264,0.2652,0.2658,0.2658,0.266,0.2662,0.266,0.2656,0.2657,0.2632,0.2659,0.2659,0.2659,0.2658,0.2658,0.2537,0.2546,0.2554,0.2566,0.2573,0.2581,0.259,0.2595,0.2606,0.2618,0.262,0.2633,0.2643,0.2659,0.2665,0.2675,0.2673,0.2677,0.2678,0.2679,0.2678,0.2655,0.2678,0.2678,0.2678,0.2678,0.2678,0,0.256,0.2565,0.2576,0.2587,0.2596,0.2595,0.2604,0.2611,0.2623,0.2631,0.2641,0.2654,0.2666,0.2673,0.2685,0.2691,0.2692,0.2694,0.2693,0.2694,0.268,0.2676,0.2694,0.2694,0.2694,0.2694,0.2694,0.2694,0.2573,0.2587,0.259,0.2607,0.2612,0.2624,0.263,0.2637,0.2643,0.2658,0.2667,0.2672,0.2679,0.2691,0.2701,0.2703,0.2707,0.2709,0.2711,0.2697,0.2695,0.2694,0.269,0.271,0.271,0.2724,0.2724,0.2724]}]]